Location: Budapest
(47.4979°N, 19.0402°E)
Time: 09:50:47
(UTC+02:00)

Envisat - Pass Details

Date: 12 October 2017
Orbit: 764 x 766 km, 98.2° (Epoch: 23 October)

Event Time Altitude Azimuth Distance (km) Brightness Sun altitude
Exits shadow 20:53:06 48° 232° (SW) 992 3.6 -29.3°
Maximum altitude 20:53:47 52° 260° (W) 947 3.6 -29.4°
Drops below altitude 10° 20:58:46 10° 337° (NNW) 2,313 6.0 -30.2°
Sets 21:01:09 0° 343° (NNW) 3,244 6.8 -30.6°
